TimeEDT,TemperatureF,Dew PointF,Humidity,Sea Level PressureIn,VisibilityMPH,Wind Direction,Wind SpeedMPH,Gust SpeedMPH,PrecipitationIn,Events,Conditions,WindDirDegrees,DateUTC
12:56 AM,63.0,61.9,96,30.23,3.0,Calm,Calm,-,N/A,,Clear,0,2013-08-21 04:56:00
1:19 AM,62.6,60.8,94,30.20,2.5,Calm,Calm,-,N/A,,Clear,0,2013-08-21 05:19:00
1:40 AM,60.8,60.8,100,30.20,1.2,Calm,Calm,-,N/A,,Clear,0,2013-08-21 05:40:00
1:47 AM,60.8,60.8,100,30.20,1.0,Calm,Calm,-,N/A,,Mostly Cloudy,0,2013-08-21 05:47:00
1:56 AM,62.6,60.8,94,30.20,1.8,Calm,Calm,-,N/A,,Mostly Cloudy,0,2013-08-21 05:56:00
2:38 AM,60.8,60.8,100,30.20,1.0,Calm,Calm,-,N/A,,Mostly Cloudy,0,2013-08-21 06:38:00
2:56 AM,59.9,59.9,100,30.23,0.2,Calm,Calm,-,N/A,Fog,Fog,0,2013-08-21 06:56:00
3:04 AM,60.8,60.8,100,30.20,0.2,Calm,Calm,-,N/A,Fog,Fog,0,2013-08-21 07:04:00
3:11 AM,60.8,60.8,100,30.20,0.2,Calm,Calm,-,N/A,Fog,Fog,0,2013-08-21 07:11:00
3:19 AM,59.0,59.0,100,30.20,0.2,Calm,Calm,-,N/A,Fog,Fog,0,2013-08-21 07:19:00
3:43 AM,57.2,57.2,100,30.19,0.5,Calm,Calm,-,N/A,Fog,Fog,0,2013-08-21 07:43:00
3:56 AM,59.0,59.0,100,30.22,1.8,Calm,Calm,-,N/A,,Clear,0,2013-08-21 07:56:00
4:05 AM,59.0,59.0,100,30.20,0.8,Calm,Calm,-,N/A,,Clear,0,2013-08-21 08:05:00
4:14 AM,57.2,57.2,100,30.19,0.2,Calm,Calm,-,N/A,Fog,Fog,0,2013-08-21 08:14:00
4:24 AM,57.2,57.2,100,30.19,0.2,Calm,Calm,-,N/A,Fog,Fog,0,2013-08-21 08:24:00
4:34 AM,57.2,57.2,100,30.19,0.2,Calm,Calm,-,N/A,Fog,Fog,0,2013-08-21 08:34:00
4:56 AM,57.9,57.9,100,30.22,0.2,Calm,Calm,-,N/A,Fog,Fog,0,2013-08-21 08:56:00
5:33 AM,57.2,57.2,100,30.20,0.2,Calm,Calm,-,N/A,Fog,Fog,0,2013-08-21 09:33:00
5:46 AM,57.2,57.2,100,30.20,1.8,Calm,Calm,-,N/A,,Clear,0,2013-08-21 09:46:00
5:56 AM,56.8,56.8,100,30.23,2.0,Calm,Calm,-,N/A,,Clear,0,2013-08-21 09:56:00
6:00 AM,57.2,57.2,100,30.20,1.2,Calm,Calm,-,N/A,,Clear,0,2013-08-21 10:00:00
6:07 AM,57.2,57.2,100,30.20,1.0,Calm,Calm,-,N/A,,Clear,0,2013-08-21 10:07:00
6:17 AM,57.2,57.2,100,30.21,0.5,Calm,Calm,-,N/A,Fog,Fog,0,2013-08-21 10:17:00
6:25 AM,57.2,57.2,100,30.21,0.2,Calm,Calm,-,N/A,Fog,Fog,0,2013-08-21 10:25:00
6:35 AM,59.0,59.0,100,30.21,0.8,Calm,Calm,-,N/A,,Clear,0,2013-08-21 10:35:00
6:37 AM,59.0,59.0,100,30.21,1.2,Calm,Calm,-,N/A,,Clear,0,2013-08-21 10:37:00
6:48 AM,57.2,57.2,100,30.21,1.0,Calm,Calm,-,N/A,,Clear,0,2013-08-21 10:48:00
6:56 AM,56.8,56.8,100,30.25,0.5,Calm,Calm,-,N/A,Fog,Fog,0,2013-08-21 10:56:00
7:02 AM,55.4,55.4,100,30.22,1.0,Calm,Calm,-,N/A,,Clear,0,2013-08-21 11:02:00
7:04 AM,55.4,55.4,100,30.22,1.5,Calm,Calm,-,N/A,,Clear,0,2013-08-21 11:04:00
7:09 AM,57.2,57.2,100,30.22,3.0,Calm,Calm,-,N/A,,Clear,0,2013-08-21 11:09:00
7:15 AM,55.4,55.4,100,30.22,1.8,Calm,Calm,-,N/A,,Clear,0,2013-08-21 11:15:00
7:31 AM,57.2,57.2,100,30.22,2.5,Calm,Calm,-,N/A,,Clear,0,2013-08-21 11:31:00
7:40 AM,59.0,59.0,100,30.22,1.5,Calm,Calm,-,N/A,,Clear,0,2013-08-21 11:40:00
7:56 AM,61.0,61.0,100,30.25,2.0,Calm,Calm,-,N/A,,Clear,0,2013-08-21 11:56:00
8:11 AM,62.6,62.6,100,30.22,4.0,Calm,Calm,-,N/A,,Clear,0,2013-08-21 12:11:00
8:25 AM,62.6,62.6,100,30.23,2.5,Calm,Calm,-,N/A,,Clear,0,2013-08-21 12:25:00
8:34 AM,62.6,62.6,100,30.23,4.0,Calm,Calm,-,N/A,,Clear,0,2013-08-21 12:34:00
8:56 AM,65.8,63.0,90,30.26,6.0,Calm,Calm,-,N/A,,Clear,0,2013-08-21 12:56:00
9:56 AM,73.9,63.9,71,30.27,10.0,Calm,Calm,-,N/A,,Clear,0,2013-08-21 13:56:00
10:56 AM,77.9,63.9,62,30.26,10.0,Calm,Calm,-,N/A,,Clear,0,2013-08-21 14:56:00
11:56 AM,81.0,61.9,52,30.25,10.0,Calm,Calm,-,N/A,,Clear,0,2013-08-21 15:56:00
12:56 PM,82.9,63.0,51,30.22,10.0,Calm,Calm,-,0.00,,Clear,0,2013-08-21 16:56:00
1:56 PM,81.9,59.9,47,30.22,10.0,Variable,3.5,-,0.00,,Clear,0,2013-08-21 17:56:00
2:56 PM,82.9,61.0,47,30.20,10.0,Calm,Calm,-,0.00,,Clear,0,2013-08-21 18:56:00
3:56 PM,83.8,59.9,44,30.17,10.0,Calm,Calm,-,0.00,Rain,Light Rain,0,2013-08-21 19:56:00
4:56 PM,86.0,61.9,44,30.15,10.0,Calm,Calm,-,0.00,,Clear,0,2013-08-21 20:56:00
5:56 PM,81.9,63.9,54,30.14,10.0,Calm,Calm,-,N/A,,Partly Cloudy,0,2013-08-21 21:56:00
6:56 PM,79.9,68.9,69,30.14,10.0,Calm,Calm,-,N/A,,Clear,0,2013-08-21 22:56:00
7:56 PM,73.9,66.9,79,30.14,10.0,Calm,Calm,-,N/A,,Clear,0,2013-08-21 23:56:00
8:56 PM,68.9,64.9,87,30.13,10.0,Calm,Calm,-,N/A,,Clear,0,2013-08-22 00:56:00
9:56 PM,72.0,64.9,78,30.13,10.0,Calm,Calm,-,N/A,,Clear,0,2013-08-22 01:56:00
10:56 PM,66.9,64.9,93,30.14,10.0,Calm,Calm,-,N/A,,Clear,0,2013-08-22 02:56:00
11:56 PM,66.9,64.9,93,30.14,8.0,Calm,Calm,-,N/A,,Clear,0,2013-08-22 03:56:00